Location: Cabeza Gorda
(40.0667°N, 4.9667°W)
Time: 20:17:47
(UTC+00:00)

Cosmos 1992 Rocket - Pass Details

Date: 15 January 2026
Orbit: 754 x 761 km, 74.0° (Epoch: 10 February)

Event Time Altitude Azimuth Distance (km) Brightness Sun altitude
Exits shadow 06:19:30 19° 317° (NW) 1,774 5.4 -15.2°
Maximum altitude 06:22:48 39° 258° (WSW) 1,125 4.4 -14.6°
Drops below altitude 10° 06:27:35 10° 191° (S) 2,281 6.5 -13.7°
Sets 06:30:04 0° 183° (S) 3,203 7.4 -13.3°
